Regional Weather Roundup
Issued by NWS Mt. Holly, NJ

Home | Current Version | Previous Version | Text Only | Print | Product List | Glossary On
Versions: 1 2 3 4 5 6 7 8 9 10 11 12 13 14 15 16 17 18 19 20 21 22 23 24 25 26 27 28 29 30 31 32 33 34 35 36 37 38 39 40 41 42 43 44 45 46 47 48 49 50
000
ASUS41 KPHI 100310
RWRPHI

REGIONAL WEATHER ROUNDUP
NATIONAL WEATHER SERVICE MOUNT HOLLY NJ
1100 PM EDT WED JUL 09 2014

NOTE:  "FAIR" INDICATES FEW OR NO CLOUDS BELOW 12,000 FEET WITH NO
SIGNIFICANT WEATHER AND/OR OBSTRUCTIONS TO VISIBILITY.

 * = STATION DOES NOT REPORT PRECIPITATION (E.G. RAIN, SNOW, ETC.)
        OR FOG.

NJZ015>026-100400-
SOUTHERN NEW JERSEY

CITY           SKY/WX    TMP DP  RH WIND       PRES   REMARKS
POMONA         CLOUDY    74  72  93 S7        29.97R FOG
RIO GRANDE*    CLOUDY    72  68  88 S7        29.99R
MILLVILLE      CLOUDY    76  70  82 SW5       29.97R
WRIGHTSTOWN    CLOUDY    74  68  81 S5        29.93R
MOUNT HOLLY    CLOUDY    77  71  82 CALM      29.95R
TRENTON        CLOUDY    78  69  73 S3        29.94R

$$
NJZ001>014-100400-
NORTHERN NEW JERSEY

CITY           SKY/WX    TMP DP  RH WIND       PRES   REMARKS
SUSSEX         MOCLDY    70  66  87 SW3       29.97S
ANDOVER*         N/A     67  67 100 CALM      29.98R
MORRISTOWN     MOCLDY    72  66  83 CALM      29.95S
NEWARK         MOCLDY    79  63  57 N6        29.93R
TETERBORO      MOCLDY    77  63  61 CALM      29.93S
CALDWELL       MOCLDY    70  68  93 CALM      29.95F
SOMERVILLE     CLOUDY    72  65  78 CALM      29.93R
ALLAIRE*       CLOUDY    77  64  65 S3        29.95R
TOMS RIVER*    CLOUDY    73  72  94 CALM      29.96R

$$
PAZ043-044-047-054-055-060>062-066>071-100400-
EASTERN PENNSYLVANIA

CITY           SKY/WX    TMP DP  RH WIND       PRES   REMARKS
PHILADELPHIA   CLOUDY    80  69  69 SW14G22   29.96R
NORTH PHILA    CLOUDY    82  70  66 SW7       29.96R
BLUE BELL      CLOUDY    79  68  69 CALM      29.96R
DOYLESTOWN     CLOUDY    74  66  76 S3        29.95R
QUAKERTOWN*    CLOUDY    73  66  78 CALM      29.97R
POTTSTOWN      MOCLDY    76  66  71 S5        29.97R
LANCASTER      MOCLDY    75  65  70 SW3       29.96R
COATESVILLE    MOCLDY    72  72 100 W5        29.98R
READING        MOCLDY    74  68  81 N6        29.96R
ALLENTOWN      CLOUDY    71  63  75 N6        29.98R
MOUNT POCONO   CLOUDY    67  60  78 CALM      30.04R
HAZLETON       MOCLDY    66  61  82 CALM      30.05R
WILKES BARRE   MOCLDY    67  61  81 E3        29.99R

$$
DEZALL-MDZ008-012-015-019-020-100400-
DELAWARE AND EASTERN MARYLAND

CITY           SKY/WX    TMP DP  RH WIND       PRES   REMARKS
WILMINGTON     CLOUDY    77  71  82 S8        29.96R
DOVER          CLOUDY    75  72  89 S14G22    29.95R
GEORGETOWN     CLOUDY    73  70  90 S14       29.99R
EASTON         CLOUDY    73  73 100 CALM      30.00
PATUXENT       CLOUDY    73  70  90 S9        29.98R
OCEAN CITY     LGT RAIN  74  70  87 SW17G25   30.01F
WALLOPS ISLAND LGT RAIN  73  71  93 SW6       30.02F
CAMBRIDGE      CLOUDY    72  68  88 CALM      29.97S
SALISBURY      CLOUDY    76  71  85 S10       30.00R

$$
PAZ001-021-NYZ056-072-MDZ011-DCZ001-100400-
OTHER NEARBY LOCATIONS

CITY           SKY/WX    TMP DP  RH WIND       PRES   REMARKS
HARRISBURG     PTCLDY    78  69  73 SW12      29.95R
STATE COLLEGE  CLEAR     66  61  82 CALM      30.02R
WILLIAMSPORT   CLEAR     67  65  93 CALM      29.98R
BINGHAMTON     CLEAR     63  60  90 N6        30.01R
NEW YORK CITY  MOCLDY    73  65  75 N6        29.97R
BALTIMORE      MOCLDY    72  66  81 S3        29.97R
WASHINGTON DC  CLOUDY    74  67  78 SW6       29.99R

$$



USA.gov is the U.S. government's official web portal to all federal, state and local government web resources and services.